EW9596 Weather Reports


Display with metric or nautical units.
time (UTC)temp
F
wind
direction
speed
MPH
gust
MPH
rain 1hr
in
rain 24hr
in
rain mn
in
humidity
%
barometer
mb
20260906150552 70 50 2.0 9.0 0.00 0.01 0.01 73 1017.3
20260906150051 69 360 4.0 9.0 0.01 0.01 0.01 75 1017.3
20260906145549 69 22 3.0 6.0 0.01 0.01 0.01 78 1017.2
20260906145049 68 19 1.0 8.0 0.01 0.01 0.01 79 1017.3
20260906144547 67 29 2.0 8.0 0.01 0.01 0.01 80 1017.3
20260906144048 67 5 0.0 3.0 0.01 0.01 0.01 82 1017.3
20260906143544 67 328 0.0 5.0 0.01 0.01 0.01 83 1017.3
20260906143050 66 313 1.0 7.0 0.01 0.01 0.01 85 1017.3
20260906142543 66 42 3.0 7.0 0.01 0.01 0.01 87 1017.3
20260906142039 65 9 2.0 5.0 0.01 0.01 0.01 88 1017.3
20260906141537 65 355 0.0 4.0 0.01 0.01 0.01 89 1017.2
20260906141036 64 34 1.0 4.0 0.01 0.01 0.01 90 1017.3
20260906140536 64 355 2.0 4.0 0.01 0.01 0.01 90 1017.3
20260906140041 64 13 1.0 4.0 0.00 0.00 0.00 91 1017.2
20260906135535 64 333 1.0 4.0 0.00 0.00 0.00 91 1017.2
20260906135034 64 117 0.0 2.0 0.00 0.00 0.00 91 1017.2
20260906134537 64 30 0.0 4.0 0.00 0.00 0.00 91 1017.3
20260906134033 64 28 0.0 6.0 0.00 0.00 0.00 92 1017.2
20260906133534 64 16 0.0 5.0 0.00 0.00 0.00 92 1017.2
20260906133032 63 33 0.0 5.0 0.00 0.00 0.00 92 1017.2
20260906132533 63 355 0.0 3.0 0.00 0.00 0.00 92 1017.1
20260906132030 63 302 0.0 3.0 0.00 0.00 0.00 92 1017.1
20260906131529 62 342 0.0 3.0 0.00 0.00 0.00 92 1017.1
20260906131028 62 46 0.0 4.0 0.00 0.00 0.00 92 1017.1
20260906130531 62 19 1.0 3.0 0.00 0.00 0.00 92 1017.2
20260906130028 62 32 0.0 2.0 0.00 0.00 0.00 92 1017.2
20260906125527 62 230 0.0 0.0 0.00 0.00 0.00 92 1017.2
20260906125030 62 230 0.0 0.0 0.00 0.00 0.00 92 1017.2
20260906124526 61 230 0.0 0.0 0.00 0.00 0.00 92 1017.0
20260906124026 61 230 0.0 0.0 0.00 0.00 0.00 92 1017.0
20260906123525 61 230 0.0 0.0 0.00 0.00 0.00 92 1016.9
20260906123026 61 230 0.0 0.0 0.00 0.00 0.00 92 1016.9
20260906122526 61 230 0.0 0.0 0.00 0.00 0.00 92 1017.0
20260906122025 61 230 0.0 0.0 0.00 0.00 0.00 92 1016.9
20260906121523 60 230 0.0 0.0 0.00 0.00 0.00 92 1016.8
20260906121024 60 230 0.0 0.0 0.00 0.00 0.00 92 1016.8
20260906120523 60 230 0.0 0.0 0.00 0.00 0.00 92 1016.8
20260906120022 60 230 0.0 0.0 0.00 0.00 0.00 92 1016.7
20260906115522 60 230 0.0 0.0 0.00 0.00 0.00 92 1016.7
20260906115021 60 230 0.0 0.0 0.00 0.00 0.00 91 1016.7
20260906114520 60 230 0.0 0.0 0.00 0.00 0.00 91 1016.6
20260906114020 60 230 0.0 0.0 0.00 0.00 0.00 91 1016.6
20260906113519 60 230 0.0 0.0 0.00 0.00 0.00 91 1016.6
20260906113020 60 230 0.0 0.0 0.00 0.00 0.00 91 1016.5
20260906112519 59 230 0.0 0.0 0.00 0.00 0.00 91 1016.4
20260906112019 59 230 0.0 0.0 0.00 0.00 0.00 91 1016.4
20260906111518 59 230 0.0 0.0 0.00 0.00 0.00 91 1016.5
20260906111018 59 230 0.0 0.0 0.00 0.00 0.00 91 1016.5
20260906110517 59 230 0.0 0.0 0.00 0.00 0.00 91 1016.5
20260906110016 59 230 0.0 0.0 0.00 0.00 0.00 91 1016.4
20260906105516 59 230 0.0 0.0 0.00 0.00 0.00 91 1016.4
20260906105016 59 230 0.0 0.0 0.00 0.00 0.00 91 1016.3
20260906104515 59 230 0.0 0.0 0.00 0.00 0.00 91 1016.3
20260906104015 59 230 0.0 0.0 0.00 0.00 0.00 91 1016.1
20260906103514 59 230 0.0 0.0 0.00 0.00 0.00 91 1016.1
20260906103013 59 230 0.0 0.0 0.00 0.00 0.00 91 1016.0
20260906102513 59 230 0.0 0.0 0.00 0.00 0.00 91 1016.0
20260906102012 59 230 0.0 0.0 0.00 0.00 0.00 91 1015.8
20260906101512 59 230 0.0 0.0 0.00 0.00 0.00 91 1015.8
20260906101011 59 230 0.0 0.0 0.00 0.00 0.00 91 1015.9
20260906100511 58 230 0.0 0.0 0.00 0.00 0.00 91 1015.8
20260906100011 58 230 0.0 0.0 0.00 0.00 0.00 91 1015.8
20260906095509 58 230 0.0 0.0 0.00 0.00 0.00 91 1015.7
20260906095010 58 230 0.0 0.0 0.00 0.00 0.00 90 1015.7
20260906094515 58 230 0.0 0.0 0.00 0.00 0.00 90 1015.7
20260906094009 58 230 0.0 0.0 0.00 0.00 0.00 90 1015.5
20260906093508 58 230 0.0 0.0 0.00 0.00 0.00 90 1015.5
20260906093012 58 230 0.0 0.0 0.00 0.00 0.00 90 1015.4
20260906092509 58 230 0.0 0.0 0.00 0.00 0.00 90 1015.3
20260906092007 58 230 0.0 0.0 0.00 0.00 0.00 90 1015.2
20260906091504 58 230 0.0 0.0 0.00 0.00 0.00 90 1015.1
20260906091004 58 230 0.0 0.0 0.00 0.00 0.00 90 1015.2
20260906090507 58 230 0.0 0.0 0.00 0.00 0.00 90 1015.1
20260906090003 58 230 0.0 0.0 0.00 0.00 0.00 89 1015.1
20260906085503 58 230 0.0 0.0 0.00 0.00 0.00 89 1015.0
20260906085001 58 230 0.0 0.0 0.00 0.00 0.00 89 1014.9
20260906084502 58 230 0.0 0.0 0.00 0.00 0.00 89 1014.9
20260906084004 58 230 0.0 0.0 0.00 0.00 0.00 89 1014.9
20260906083601 58 230 0.0 0.0 0.00 0.00 0.00 89 1014.8
20260906083100 58 230 0.0 0.0 0.00 0.00 0.00 89 1014.8
20260906082600 58 230 0.0 0.0 0.00 0.00 0.00 89 1014.8
20260906082059 58 230 0.0 0.0 0.00 0.00 0.00 89 1014.8
20260906081600 58 230 0.0 0.0 0.00 0.00 0.00 89 1014.8
20260906081101 58 230 0.0 0.0 0.00 0.00 0.00 89 1014.8
20260906080559 59 230 0.0 0.0 0.00 0.00 0.00 89 1014.9
20260906080100 59 230 0.0 0.0 0.00 0.00 0.00 89 1014.8
20260906075557 59 230 0.0 0.0 0.00 0.00 0.00 89 1014.7
20260906075057 59 230 0.0 0.0 0.00 0.00 0.00 89 1014.7
20260906074559 59 230 0.0 0.0 0.00 0.00 0.00 89 1014.7
20260906074056 59 230 0.0 0.0 0.00 0.00 0.00 89 1014.6
20260906073559 59 230 0.0 0.0 0.00 0.00 0.00 89 1014.6
20260906073057 59 230 0.0 0.0 0.00 0.00 0.00 89 1014.7
20260906072554 59 230 0.0 0.0 0.00 0.00 0.00 89 1014.7
20260906072054 60 230 0.0 0.0 0.00 0.00 0.00 89 1014.8
20260906071553 60 230 0.0 0.0 0.00 0.00 0.00 89 1014.8
20260906071053 60 230 0.0 0.0 0.00 0.00 0.00 89 1014.7
20260906070553 60 230 0.0 0.0 0.00 0.00 0.00 89 1014.8
20260906070052 60 230 0.0 0.0 0.00 0.00 0.00 89 1014.8
20260906065555 60 230 0.0 0.0 0.00 0.00 0.00 89 1014.8
20260906065053 60 230 0.0 0.0 0.00 0.00 0.00 89 1014.8
20260906064551 60 230 0.0 0.0 0.00 0.00 0.00 89 1014.7
20260906064050 60 230 0.0 0.0 0.00 0.00 0.00 88 1014.8
20260906063550 60 230 0.0 0.0 0.00 0.00 0.00 88 1014.7
20260906063052 60 230 0.0 0.0 0.00 0.00 0.00 88 1014.8
20260906062548 61 230 0.0 0.0 0.00 0.00 0.00 88 1014.9
20260906062048 61 230 0.0 0.0 0.00 0.00 0.00 88 1014.9
20260906061548 61 230 0.0 0.0 0.00 0.00 0.00 88 1014.9
20260906061051 61 231 0.0 0.0 0.00 0.00 0.00 88 1014.9
20260906060548 61 230 0.0 0.0 0.00 0.00 0.00 88 1015.0
20260906060057 61 231 0.0 0.0 0.00 0.00 0.00 88 1015.0
20260906055550 61 230 0.0 0.0 0.00 0.00 0.00 88 1015.0
20260906055047 61 230 0.0 0.0 0.00 0.00 0.00 88 1015.0
20260906054549 61 230 0.0 0.0 0.00 0.00 0.00 88 1015.0
20260906054047 61 229 0.0 4.0 0.00 0.00 0.00 88 1015.0
20260906053547 61 234 0.0 4.0 0.00 0.00 0.00 88 1015.0
20260906053046 61 236 0.0 2.0 0.00 0.00 0.00 87 1015.0
20260906052548 61 232 0.0 0.0 0.00 0.00 0.00 87 1015.0
20260906052046 61 154 0.0 0.0 0.00 0.00 0.00 87 1015.0
20260906051550 61 154 0.0 0.0 0.00 0.00 0.00 87 1015.1
20260906051045 61 153 0.0 0.0 0.00 0.00 0.00 87 1015.1
20260906050544 61 154 0.0 0.0 0.00 0.00 0.00 86 1015.1
20260906050047 61 154 0.0 0.0 0.00 0.00 0.00 86 1015.0
20260906045544 61 154 0.0 0.0 0.00 0.00 0.00 86 1015.0
20260906045043 61 154 0.0 0.0 0.00 0.00 0.00 86 1015.0
20260906044543 61 154 0.0 0.0 0.00 0.00 0.00 86 1015.1
20260906044042 61 154 0.0 0.0 0.00 0.00 0.00 86 1015.0
20260906043541 61 154 0.0 0.0 0.00 0.00 0.00 86 1015.0
20260906043043 61 154 0.0 0.0 0.00 0.00 0.00 86 1015.0
20260906042540 61 154 0.0 0.0 0.00 0.00 0.00 85 1014.9
20260906042039 62 154 0.0 0.0 0.00 0.00 0.00 85 1015.0
20260906041545 62 154 0.0 0.0 0.00 0.00 0.00 85 1015.0
20260906041041 62 154 0.0 0.0 0.00 0.00 0.00 85 1014.9
20260906040538 62 154 0.0 0.0 0.00 0.00 0.00 85 1014.9
20260906040045 62 154 0.0 0.0 0.00 0.00 0.00 85 1014.9
20260906035537 62 154 0.0 0.0 0.00 0.00 0.00 84 1014.9
20260906035037 62 154 0.0 0.0 0.00 0.00 0.00 84 1014.8
20260906034536 63 154 0.0 0.0 0.00 0.00 0.00 84 1014.8
20260906034035 63 154 0.0 0.0 0.00 0.00 0.00 84 1014.8
20260906033534 63 154 0.0 0.0 0.00 0.00 0.00 84 1014.8
20260906033034 63 154 0.0 0.0 0.00 0.00 0.00 84 1014.6
20260906032534 63 154 0.0 0.0 0.00 0.00 0.00 83 1014.6
20260906032033 63 154 0.0 0.0 0.00 0.00 0.00 83 1014.5
20260906031533 63 154 0.0 0.0 0.00 0.00 0.00 83 1014.4
20260906031033 64 154 0.0 0.0 0.00 0.00 0.00 83 1014.4
20260906030533 64 154 0.0 0.0 0.00 0.00 0.00 83 1014.3
20260906030032 64 154 0.0 0.0 0.00 0.00 0.00 83 1014.3
20260906025533 64 154 0.0 0.0 0.00 0.00 0.00 82 1014.4
20260906025033 64 154 0.0 0.0 0.00 0.00 0.00 82 1014.5
20260906024533 65 154 0.0 0.0 0.00 0.00 0.00 82 1014.5
20260906024032 65 154 0.0 0.0 0.00 0.00 0.00 82 1014.5
20260906023533 65 154 0.0 0.0 0.00 0.00 0.00 82 1014.5
20260906023035 65 154 0.0 0.0 0.00 0.00 0.00 82 1014.5
20260906022532 65 154 0.0 0.0 0.00 0.00 0.00 82 1014.4
20260906022037 66 154 0.0 0.0 0.00 0.00 0.00 82 1014.4
20260906021531 66 154 0.0 0.0 0.00 0.00 0.00 81 1014.4
20260906021029 66 154 0.0 0.0 0.00 0.00 0.00 81 1014.4
20260906020529 66 154 0.0 0.0 0.00 0.00 0.00 81 1014.3
20260906020029 66 154 0.0 0.0 0.00 0.00 0.00 81 1014.2
20260906015533 66 74 0.0 0.0 0.00 0.00 0.00 81 1014.3
20260906015028 66 75 0.0 0.0 0.00 0.00 0.00 80 1014.2
20260906014533 66 74 0.0 0.0 0.00 0.00 0.00 80 1014.0
20260906014029 67 75 0.0 0.0 0.00 0.00 0.00 80 1014.1
20260906013527 67 75 0.0 0.0 0.00 0.00 0.00 80 1014.0
20260906013028 67 75 0.0 0.0 0.00 0.00 0.00 79 1014.0
20260906012527 67 75 0.0 0.0 0.00 0.00 0.00 79 1013.9
20260906012029 67 75 0.0 0.0 0.00 0.00 0.00 79 1014.0
20260906011526 67 75 0.0 0.0 0.00 0.00 0.00 78 1014.0
20260906011025 67 75 0.0 0.0 0.00 0.00 0.00 78 1013.9
20260906010526 67 75 0.0 0.0 0.00 0.00 0.00 77 1013.9
20260906010026 68 75 0.0 0.0 0.00 0.00 0.00 77 1013.9
20260906005525 68 74 0.0 0.0 0.00 0.00 0.00 76 1014.0
20260906005029 68 74 0.0 0.0 0.00 0.00 0.00 76 1014.0
20260906004525 68 74 0.0 0.0 0.00 0.00 0.00 76 1013.9
20260906004025 69 74 0.0 0.0 0.00 0.00 0.00 75 1013.7
20260906003525 69 74 0.0 0.0 0.00 0.00 0.00 75 1013.6
20260906003025 69 74 0.0 0.0 0.00 0.00 0.00 74 1013.6
20260906002525 70 74 0.0 0.0 0.00 0.00 0.00 73 1013.5
20260906002024 70 74 0.0 0.0 0.00 0.00 0.00 73 1013.5
20260906001525 70 74 0.0 0.0 0.00 0.00 0.00 72 1013.4
20260906001023 71 74 0.0 0.0 0.00 0.00 0.00 72 1013.5
20260906000530 71 74 0.0 0.0 0.00 0.00 0.00 71 1013.6
20260906000024 71 74 0.0 0.0 0.00 0.00 0.00 70 1013.5
20260905235523 72 74 0.0 0.0 0.00 0.00 0.00 70 1013.4
20260905235023 72 74 0.0 0.0 0.00 0.00 0.00 69 1013.4
20260905234523 72 74 0.0 0.0 0.00 0.00 0.00 69 1013.4
20260905234026 73 74 0.0 0.0 0.00 0.00 0.00 68 1013.4
20260905233523 73 340 0.0 0.0 0.00 0.00 0.00 68 1013.5
20260905233024 73 340 0.0 0.0 0.00 0.00 0.00 67 1013.5
20260905232526 74 339 0.0 0.0 0.00 0.00 0.00 66 1013.5
20260905232022 74 339 0.0 5.0 0.00 0.00 0.00 65 1013.5
20260905231523 74 339 0.0 5.0 0.00 0.00 0.00 65 1013.4
20260905231021 74 33 0.0 0.0 0.00 0.00 0.00 65 1013.3
20260905230529 75 32 0.0 0.0 0.00 0.00 0.00 64 1013.3
20260905230022 75 30 0.0 0.0 0.00 0.00 0.00 63 1013.3
20260905225521 75 28 0.0 0.0 0.00 0.00 0.00 63 1013.2
20260905225021 75 28 0.0 0.0 0.00 0.00 0.00 63 1013.1
20260905224522 75 36 0.0 4.0 0.00 0.00 0.00 62 1013.1
20260905224022 75 54 1.0 4.0 0.00 0.00 0.00 62 1013.3
20260905223525 75 25 0.0 4.0 0.00 0.00 0.00 62 1013.2
20260905223021 75 26 0.0 4.0 0.00 0.00 0.00 61 1013.2
20260905222526 75 302 0.0 4.0 0.00 0.00 0.00 61 1013.1
20260905222022 76 317 2.0 5.0 0.00 0.00 0.00 61 1013.0
20260905221532 75 89 2.0 5.0 0.00 0.00 0.00 61 1013.0
20260905221021 75 250 1.0 6.0 0.00 0.00 0.00 62 1012.9
20260905220522 75 330 1.0 6.0 0.00 0.00 0.00 63 1012.9
20260905220021 75 304 0.0 0.0 0.00 0.00 0.00 64 1012.9
20260905215520 75 251 0.0 0.0 0.00 0.00 0.00 63 1012.7
20260905215020 75 249 0.0 0.0 0.00 0.00 0.00 63 1012.8
20260905214519 75 59 0.0 0.0 0.00 0.00 0.00 62 1012.7
20260905214019 75 61 0.0 3.0 0.00 0.00 0.00 63 1012.6
20260905213519 75 61 0.0 6.0 0.00 0.00 0.00 63 1012.6
20260905213029 75 323 1.0 6.0 0.00 0.00 0.00 63 1012.6
20260905212519 75 297 0.0 0.0 0.00 0.00 0.00 63 1012.5
20260905212022 76 251 0.0 0.0 0.00 0.00 0.00 65 1012.5
20260905211521 76 189 0.0 0.0 0.00 0.00 0.00 64 1012.5
20260905211019 76 250 0.0 0.0 0.00 0.00 0.00 62 1012.5
20260905210519 76 273 0.0 0.0 0.00 0.00 0.00 61 1012.5
20260905210026 76 271 0.0 6.0 0.00 0.00 0.00 60 1012.5
20260905205518 77 253 2.0 6.0 0.00 0.00 0.00 59 1012.5
20260905205021 77 277 0.0 5.0 0.00 0.00 0.00 61 1012.4
20260905204518 77 261 2.0 9.0 0.00 0.00 0.00 61 1012.4
20260905204016 77 309 4.0 9.0 0.00 0.00 0.00 62 1012.3
20260905203515 77 351 0.0 7.0 0.00 0.00 0.00 64 1012.3
20260905203015 76 309 2.0 7.0 0.00 0.00 0.00 63 1012.3
20260905202515 76 288 2.0 6.0 0.00 0.00 0.00 64 1012.4
20260905202015 76 334 0.0 5.0 0.00 0.00 0.00 63 1012.4
20260905201524 76 338 2.0 7.0 0.00 0.00 0.00 61 1012.5
20260905201014 76 265 1.0 7.0 0.00 0.00 0.00 62 1012.5
20260905200516 76 260 1.0 6.0 0.00 0.00 0.00 61 1012.5
20260905200014 76 44 1.0 6.0 0.00 0.00 0.00 61 1012.5
20260905195515 76 344 0.0 3.0 0.00 0.00 0.00 60 1012.6
20260905195013 76 360 0.0 4.0 0.00 0.00 0.00 59 1012.5
20260905194513 76 34 1.0 4.0 0.00 0.00 0.00 60 1012.5
20260905194013 76 16 0.0 5.0 0.00 0.00 0.00 60 1012.4
20260905193513 76 17 2.0 5.0 0.00 0.00 0.00 62 1012.3
20260905193013 76 263 0.0 8.0 0.00 0.00 0.00 64 1012.4
20260905192513 76 225 2.0 8.0 0.00 0.00 0.00 64 1012.5
20260905192010 76 274 3.0 8.0 0.00 0.00 0.00 63 1012.6
20260905191509 76 54 0.0 4.0 0.00 0.00 0.00 64 1012.6
20260905191009 75 312 0.0 6.0 0.00 0.00 0.00 62 1012.7
20260905190510 75 10 2.0 6.0 0.00 0.00 0.00 61 1012.7
20260905190009 75 360 0.0 4.0 0.00 0.00 0.00 61 1012.6
20260905185509 75 311 0.0 4.0 0.00 0.00 0.00 62 1012.6
20260905185008 75 309 0.0 3.0 0.00 0.00 0.00 65 1012.6
20260905184508 75 321 0.0 5.0 0.00 0.00 0.00 65 1012.6
20260905184008 75 355 2.0 5.0 0.00 0.00 0.00 64 1012.6
20260905183507 75 266 1.0 7.0 0.00 0.00 0.00 65 1012.6
20260905183007 75 272 4.0 9.0 0.00 0.00 0.00 63 1012.6
20260905182508 75 240 3.0 8.0 0.00 0.00 0.00 62 1012.7
20260905182007 76 249 2.0 6.0 0.00 0.00 0.00 61 1012.7
20260905181507 76 32 0.0 5.0 0.00 0.00 0.00 61 1012.6
20260905181006 76 308 0.0 5.0 0.00 0.00 0.00 61 1012.6
20260905180507 75 324 0.0 4.0 0.00 0.00 0.00 62 1012.6
20260905180006 75 304 1.0 4.0 0.00 0.00 0.00 63 1012.5
20260905175506 75 240 0.0 7.0 0.00 0.00 0.00 62 1012.5
20260905175006 75 238 0.0 10.0 0.00 0.00 0.00 61 1012.7
20260905174512 75 236 4.0 10.0 0.00 0.00 0.00 62 1012.7
20260905174005 75 283 1.0 5.0 0.00 0.00 0.00 63 1012.6
20260905173505 75 226 2.0 5.0 0.00 0.00 0.00 67 1012.6
20260905173006 75 176 0.0 7.0 0.00 0.00 0.00 65 1012.7
20260905172502 75 227 3.0 7.0 0.00 0.00 0.00 64 1012.8
20260905172101 75 263 0.0 0.0 0.00 0.00 0.00 62 1012.8
20260905171500 75 263 0.0 0.0 0.00 0.00 0.00 61 1012.9
20260905171101 75 218 0.0 1.0 0.00 0.00 0.00 61 1012.9
20260905170559 75 200 0.0 5.0 0.00 0.00 0.00 62 1012.9
20260905170106 74 336 2.0 5.0 0.00 0.00 0.00 64 1013.0
20260905165558 74 342 0.0 3.0 0.00 0.00 0.00 65 1013.1
20260905165104 74 307 0.0 4.0 0.00 0.00 0.00 63 1013.1
20260905164559 74 279 0.0 4.0 0.00 0.00 0.00 64 1013.0
20260905164059 74 300 0.0 4.0 0.00 0.00 0.00 63 1013.1
20260905163600 75 346 0.0 4.0 0.00 0.00 0.00 63 1013.1
20260905163102 75 34 1.0 3.0 0.00 0.00 0.00 62 1013.0
20260905162558 75 299 0.0 6.0 0.00 0.00 0.00 63 1013.0
20260905162056 75 288 2.0 8.0 0.00 0.00 0.00 62 1013.0
20260905161556 74 60 3.0 6.0 0.00 0.00 0.00 64 1013.0
20260905161054 74 320 0.0 6.0 0.00 0.00 0.00 66 1013.0
20260905160553 73 16 0.0 3.0 0.00 0.00 0.00 66 1013.0
20260905160054 73 49 0.0 4.0 0.00 0.00 0.00 65 1013.1
20260905155555 74 84 1.0 6.0 0.00 0.00 0.00 64 1013.2
20260905155054 74 9 2.0 6.0 0.00 0.00 0.00 64 1013.3
20260905154553 74 46 0.0 5.0 0.00 0.00 0.00 64 1013.2
20260905154050 74 42 2.0 5.0 0.00 0.00 0.00 64 1013.3
20260905153549 74 31 1.0 5.0 0.00 0.00 0.00 64 1013.2
20260905153048 74 284 0.0 5.0 0.00 0.00 0.00 65 1013.3
20260905152546 74 236 2.0 6.0 0.00 0.00 0.00 67 1013.2
20260905152045 73 15 2.0 7.0 0.00 0.00 0.00 65 1013.2
20260905151545 73 297 0.0 7.0 0.00 0.00 0.00 64 1013.4
20260905151044 74 336 1.0 10.0 0.00 0.00 0.00 64 1013.3